Hourly Weather Roundup
Issued by NWS

Home | Current Version | Previous Version | Text Only | Print | Product List | Glossary On
Versions: 1 2 3 4 5 6 7 8 9 10 11 12 13 14 15 16 17 18 19 20 21 22 23 24 25 26 27 28 29 30 31 32 33 34 35 36 37 38 39 40 41 42 43 44 45 46 47 48 49 50
000
NZUS43 KILX 281110
HWRCRS

CRS HOURLY WEATHER ROUNDUP
NATIONAL WEATHER SERVICE, LINCOLN IL
600 AM CDT THU JUL 28 2016


CITY           SKY/WX    TMP DP  RH WIND       PRES   REMARKS
CHAMPAIGN      CLOUDY    71  69  93 E3        29.91R
LAWRENCEVILLE  MOCLDY    73  73 100 CALM      29.90S FOG
PEORIA         PTCLDY    73  72  96 CALM      29.88S
SPRINGFIELD    FOG       74  73  97 NW5       29.89S VSB<1/4
$$


CITY           SKY/WX    TMP DP  RH WIND       PRES   REMARKS
BLOOMINGTON    CLOUDY    72  69  90 E3        29.91R
DECATUR        RAIN      71  69  93 CALM      29.89R FOG
EFFINGHAM      CLOUDY    73  73 100 E5        29.92R FOG
FLORA          PTCLDY    74  73  95 S5        29.90R
GALESBURG      PTCLDY    69  68  98 CALM      29.89S
JACKSONVILLE   PTCLDY    69  68  96 CALM      29.89R FOG
LACON          MOCLDY    69  68  95 CALM      29.88S
LINCOLN        MOCLDY    73  73  99 CALM      29.88S
LITCHFIELD       N/A    N/A N/A N/A MISG        N/A

CITY           SKY/WX    TMP DP  RH WIND       PRES   REMARKS
MACOMB         PTCLDY    67  67  99 CALM      29.92R FOG
MATTOON        MOCLDY    72  70  93 CALM      29.89R
MOLINE         CLEAR     68  65  90 W5        29.88S
OLNEY          CLOUDY    72  72 100 CALM      29.91R FOG
PARIS          CLOUDY    72  71  99 CALM      29.91R
PONTIAC        CLOUDY    72  72 100 CALM      29.90S FOG
QUINCY         PTCLDY    69  69 100 NE5       29.89R
RANTOUL        NOT AVBL
ROBINSON       CLOUDY    73  73  99 CALM      29.91R FOG
TAYLORVILLE    CLOUDY    71  71 100 MISG      29.89R FOG
TERRE HAUTE    CLOUDY    74  71  91 CALM      29.91R
$$


CITY           SKY/WX    TMP DP  RH WIND       PRES   REMARKS
BURLINGTON     CLEAR     69  68  96 NW6       29.89R
CHICAGO        MOCLDY    73  66  78 NE3       29.90R
DES MOINES     PTCLDY    70  66  87 N8        29.96R
EVANSVILLE     CLOUDY    73  71  93 CALM      29.92R
INDIANAPOLIS   CLOUDY    73  68  84 CALM      29.93R
KANSAS CITY    PTCLDY    70  69  97 N6        29.95R
MILWAUKEE      MOCLDY    69  66  90 NE8       29.92F
ST LOUIS       PTCLDY    77  72  84 W5        29.89R
$$





USA.gov is the U.S. government's official web portal to all federal, state and local government web resources and services.